Powrót do katalogu

STARLINK-30768

AktywnyŁącznośćVLEO
NORAD 58120·PAYLOAD·🇺🇸 United States

Wystrzelony Oct 22, 2023 z Cape Canaveral Space Force Station

Loading…

Następne Przeloty (najbliższe 24 godziny)

TLE

ŚwieżeSource: CelesTrak SupGP

Epoka: Sep 15, 2026, 02:57 UTC

1 58120C 23162C   26258.12340278  .00059086  00000+0  21424-2 0  2580
2 58120  43.0018 142.3186 0001331 264.8895  63.9509 15.27513692    13

Śledź STARLINK-30768 w czasie rzeczywistym z AllMySat

Download on the App Store